User: anonymous   Login
Location: Bushey
(51.6333°N, 0.3667°W)
Time: 15:15:30
(UTC+00:00)
Language:

Cosmos 2084 Rocket - Orbit

View from above orbital plane
View from above orbital plane
View from above satellite
View from above satellite

Ground track
Ground track

The orbit data is extracted from the following two-line orbital elements,

1 20666U 90055D   21135.91322054  .00000123  00000-0  29209-4 0  9999
2 20666  62.7864  53.6149 0094171  31.2358 329.4284 14.92487177674916
Epoch (UTC): 15 May 2021 21:55:02
Eccentricity: 0.0094171
inclination: 62.7864°
perigee height: 524 km
apogee height: 656 km
right ascension of ascending node: 53.6149°
argument of perigee: 31.2358°
revolutions per day: 14.92487177
mean anomaly at epoch: 329.4284°
orbit number at epoch: 67491

The dashed part of the orbit path shows where the satellite is in the earth's shadow,  

DLR